Regional Weather Roundup
Issued by NWS

Home | Current Version | Previous Version | Text Only | Print | Product List | Glossary On
Versions: 1 2 3 4 5 6 7 8 9 10 11 12 13 14 15 16 17 18 19 20 21 22 23 24 25 26 27 28 29 30 31 32 33 34 35 36 37 38 39 40 41 42 43 44 45 46 47 48 49
000
ASUS44 KLIX 271913
RWRLA
LOUISIANA WEATHER ROUNDUP
NATIONAL WEATHER SERVICE NEW ORLEANS LA
200 PM CDT THU APR 27 2017

NOTE: "FAIR" INDICATES FEW OR NO CLOUDS BELOW 12,000 FEET WITH NO
      SIGNIFICANT WEATHER AND/OR OBSTRUCTIONS TO VISIBILITY.
      SKY/WX - SKY CONDITION AND SIGNIFICANT WEATHER.
      TMP - AIR TEMPERATURE.    DP   - DEWPOINT TEMPERATURE.
      RH  - RELATIVE HUMIDITY.  PRES - PRESSURE.
      HX  - HEAT INDEX.         WCI  - WIND CHILL INDEX.

*  THESE STATIONS ARE NOT NWS OR FAA STATIONS AND ARE NOT UNDER
   NWS QUALITY CONTROL.

LAZ040-048-061>063-065-066-069-272000-
SOUTHEAST LOUISIANA

CITY           SKY/WX    TMP DP  RH WIND       PRES   REMARKS
N.O. INTL ARPT MOSUNNY   76  61  59 NW5       29.82F
N.O. LAKEFRONT SUNNY     73  61  65 NW7       29.83F
N.O. DOWNTOWN*   N/A     77  61  57 VRB5        N/A
RESERVE*       NOT AVBL
SLIDELL        SUNNY     82  59  45 NW5       29.80F
BATON ROUGE    SUNNY     76  57  51 E3        29.82F
BOOTHVILLE     CLOUDY    75  66  73 NE5       29.83S
BELLE CHASSE   MOSUNNY   81  61  50 VRB6      29.80F
BOGALUSA*      NOT AVBL
GALLIANO*      PTCLDY    80  58  46 E5        29.82S
NEW ROADS*     FAIR      72  56  57 NE3       29.83F
GONZALES*      FAIR      76  57  52 N3        29.81F
HAMMOND*       SUNNY     77  52  41 N3        29.82F
HOUMA*         MOSUNNY   82  57  42 CALM      29.81F
PORT FOURCHON* MOCLDY    77  64  65 E9        29.81F

$$

LAZ041-044-053-054-272000-
SOUTHWEST LOUISIANA

CITY           SKY/WX    TMP DP  RH WIND       PRES   REMARKS
LAKE CHARLES   SUNNY     75  55  49 E6        29.80F
LAFAYETTE      SUNNY     80  58  46 E5        29.81F
PATTERSON      SUNNY     78  61  55 VRB5      29.81F
SALT POINT       N/A     76  62  62 CALM        N/A
NEW IBERIA     SUNNY     79  56  45 NE7       29.81F
CHENAULT AIRPK SUNNY     75  57  53 SE7       29.81F

$$

LAZ027-028-272000-
CENTRAL LOUISIANA

CITY           SKY/WX    TMP DP  RH WIND       PRES   REMARKS
FORT POLK      SUNNY     74  51  43 NE3       29.80F
ALEXANDRIA INT SUNNY     73  50  44 VRB5      29.81F
ALEXANDRIA     SUNNY     74  53  48 VRB5      29.82F

$$

LAZ001-002-272000-
NORTHWEST LOUISIANA

CITY           SKY/WX    TMP DP  RH WIND       PRES   REMARKS
SHREVEPORT     SUNNY     70  51  51 E9        29.82F
BARKSDALE AFB  MOSUNNY   69  52  54 S6        29.81F
DTN SHREVEPORT SUNNY     70  51  51 SE10      29.81F

$$

LAZ014-016-272000-
NORTHEAST LOUISIANA

CITY           SKY/WX    TMP DP  RH WIND       PRES   REMARKS
MONROE         SUNNY     68  51  54 CALM      29.84F
TALLULAH       SUNNY     67  52  58 VRB3      29.84F

$$




USA.gov is the U.S. government's official web portal to all federal, state and local government web resources and services.